User: anonymous   Login
Location: Ostrava
(49.8330°N, 18.2830°E)
Time: 01:59:17
(UTC+01:00)
Language:

Cosmos 2219 Rocket - Orbit

View from above orbital plane
View from above orbital plane
View from above satellite
View from above satellite

Ground track
Ground track

The orbit data is extracted from the following two-line orbital elements,

1 22220U 92076B   15060.26050119 -.00000082  00000-0 -17185-4 0  9996
2 22220 071.0011 025.0562 0010736 116.2545 341.9318 14.16351918151983
Epoch (UTC): 01 March 2015 06:15:07
Eccentricity: 0.0010736
inclination: 71.0011°
perigee height: 830 km
apogee height: 845 km
right ascension of ascending node: 25.0562°
argument of perigee: 116.2545°
revolutions per day: 14.16351918
mean anomaly at epoch: 341.9318°
orbit number at epoch: 15198

The dashed part of the orbit path shows where the satellite is in the earth's shadow,  

DLR